Tracking 25744 objects as of 25-Jun-2022
HD Live streaming from Space Station
objects crossing your sky now

STARLINK-3353

Track STARLINK-3353 now!
10-day predictions
STARLINK-3353 is classified as:


NORAD ID: 50807
Int'l Code: 2022-001E
Perigee: 545.0 km
Apogee: 548.8 km
Inclination: 53.2 °
Period: 95.4 minutes
Semi major axis: 6917 km
RCS: Unknown
Launch date: January 6, 2022
Source: United States (US)
Launch site: AIR FORCE EASTERN TEST RANGE (AFETR)
aabbcc
Your satellite tracking list
Your tracking list is empty




NASA's NSSDC Master Catalog

Two Line Element Set (TLE):
1 50807U 22001E   22175.78600966 -.00001360  00000-0 -67355-4 0  9996
2 50807  53.2194 117.0403 0002716  62.3964 297.7303 15.08837292 27429
Source of the keplerian elements: AFSPC